Location: Bourg-d�Oueil
(42.8588°N, 0.4991°E)
Time: 17:57:06
(UTC+00:00)

Meteor 1-4 Rocket - Pass Details

Date: 16 June 2021
Orbit: 446 x 499 km, 81.2° (Epoch: 22 July)

Event Time Altitude Azimuth Distance (km) Brightness Sun altitude
Rises 23:39:24 0° 356° (N) 2,487 7.6 -23.6°
Reaches altitude 10° 23:41:35 10° 4° (N) 1,601 6.3 -23.6°
Enters shadow 23:44:19 38° 48° (NE) 711 3.6 -23.7°
